Tracking 19644 objects as of 24-Apr-2019
HD Live streaming from Space Station
objects crossing your sky now

GSTAR 4

Track GSTAR 4 now!
GSTAR 4 is classified as:


NORAD ID: 20946
Int'l Code: 1990-100B
Perigee: 36,065.5 km
Apogee: 36,161.1 km
Inclination: 12.4 °
Period: 1,452.5 minutes
Semi major axis: 42484 km
RCS: 8.7599 m2 (large)
Launch date: November 20, 1990
Source: United States (US)
Launch site: FRENCH GUIANA (FRGUI)
aabbcc
Your satellite tracking list
Your tracking list is empty




NASA's NSSDC Master Catalog

Two Line Element Set (TLE):
1 20946U 90100B   19113.44335236 -.00000178 +00000-0 +00000-0 0  9993
2 20946 012.4388 029.1406 0011253 312.3878 321.7615 00.99142576020915
Source of the keplerian elements: AFSPC